Time,TemperatureF,DewpointF,PressureIn,WindDirection,WindDirectionDegrees,WindSpeedMPH,WindSpeedGustMPH,Humidity,HourlyPrecipIn,Conditions,Clouds,dailyrainin,SolarRadiationWatts/m^2,SoftwareType,DateUTC
2013-09-21 00:00:00,58.1,56.7,29.71,SSW,202,0.0,0.0,95,0.00,,---,0.10,0.00,VWS V14.01,2013-09-21 07:00:00,
2013-09-21 00:01:00,58.2,57.1,29.71,SSW,202,2.0,2.0,96,0.00,,---,0.00,0.00,VWS V14.01,2013-09-21 07:01:00,
2013-09-21 00:06:00,58.2,57.1,29.71,SSW,202,0.0,2.0,96,0.00,,---,0.00,0.00,VWS V14.01,2013-09-21 07:06:00,
2013-09-21 00:10:00,58.1,57.0,29.70,SSW,202,0.0,2.0,96,0.00,,---,0.10,0.00,VWS V14.01,2013-09-21 07:10:00,
2013-09-21 00:11:00,58.2,57.1,29.71,SSW,202,0.0,2.0,96,0.00,,---,0.00,0.00,VWS V14.01,2013-09-21 07:11:00,
2013-09-21 00:16:00,58.2,57.1,29.71,SSW,202,0.0,2.0,96,0.01,,---,0.01,0.00,VWS V14.01,2013-09-21 07:16:00,
2013-09-21 00:20:00,58.1,57.0,29.71,SSW,202,0.0,0.0,96,0.00,,---,0.10,0.00,VWS V14.01,2013-09-21 07:20:00,
2013-09-21 00:21:00,58.2,57.1,29.71,SSW,202,2.0,3.0,96,0.01,,---,0.01,0.00,VWS V14.01,2013-09-21 07:21:00,
2013-09-21 00:26:00,58.2,57.1,29.71,SSW,202,0.0,3.0,96,0.01,,---,0.01,0.00,VWS V14.01,2013-09-21 07:26:00,
2013-09-21 00:30:00,58.1,57.0,29.70,SSW,202,0.0,0.0,96,0.00,,---,0.10,0.00,VWS V14.01,2013-09-21 07:30:00,
2013-09-21 00:31:00,58.1,57.0,29.71,SSW,202,0.0,0.0,96,0.03,,---,0.03,0.00,VWS V14.01,2013-09-21 07:31:00,
2013-09-21 00:36:00,58.1,57.0,29.71,SSW,202,0.0,4.0,96,0.04,,---,0.04,0.00,VWS V14.01,2013-09-21 07:36:00,
2013-09-21 00:40:00,58.1,57.0,29.70,SSW,202,0.0,0.0,96,0.00,,---,0.10,0.00,VWS V14.01,2013-09-21 07:40:00,
2013-09-21 00:41:00,58.1,57.0,29.71,SSW,202,0.0,3.0,96,0.04,,---,0.04,0.00,VWS V14.01,2013-09-21 07:41:00,
2013-09-21 00:46:00,58.0,56.9,29.71,SSW,202,2.0,3.0,96,0.04,,---,0.04,0.00,VWS V14.01,2013-09-21 07:46:00,
2013-09-21 00:50:00,58.1,57.0,29.71,SSW,202,0.0,1.0,96,0.00,,---,0.10,0.00,VWS V14.01,2013-09-21 07:50:00,
2013-09-21 00:51:00,58.0,56.9,29.71,SSW,202,0.0,0.0,96,0.04,,---,0.04,0.00,VWS V14.01,2013-09-21 07:51:00,
2013-09-21 00:56:00,57.9,56.8,29.71,SSW,202,0.0,0.0,96,0.05,,---,0.05,0.00,VWS V14.01,2013-09-21 07:56:00,
2013-09-21 01:00:00,58.1,57.0,29.71,SSW,202,0.0,2.0,96,0.00,,---,0.10,0.00,VWS V14.01,2013-09-21 08:00:00,
2013-09-21 01:01:00,57.8,56.7,29.71,SSW,202,0.0,2.0,96,0.05,,---,0.05,0.00,VWS V14.01,2013-09-21 08:01:00,
2013-09-21 01:06:00,57.8,56.7,29.71,SSW,202,0.0,2.0,96,0.05,,---,0.05,0.00,VWS V14.01,2013-09-21 08:06:00,
2013-09-21 01:10:00,58.2,57.1,29.71,SSW,202,0.0,2.0,96,0.00,,---,0.00,0.00,VWS V14.01,2013-09-21 08:10:00,
2013-09-21 01:11:00,57.8,56.7,29.71,SSW,202,0.0,0.0,96,0.05,,---,0.05,0.00,VWS V14.01,2013-09-21 08:11:00,
2013-09-21 01:16:00,57.7,56.9,29.71,SSW,202,0.0,0.0,97,0.05,,---,0.05,0.00,VWS V14.01,2013-09-21 08:16:00,
2013-09-21 01:20:00,58.2,57.1,29.71,SSW,202,0.0,2.0,96,0.01,,---,0.01,0.00,VWS V14.01,2013-09-21 08:20:00,
2013-09-21 01:21:00,57.7,56.9,29.71,SSW,202,1.0,1.0,97,0.04,,---,0.05,0.00,VWS V14.01,2013-09-21 08:21:00,
2013-09-21 01:26:00,57.6,56.8,29.70,SSW,202,0.0,2.0,97,0.04,,---,0.05,0.00,VWS V14.01,2013-09-21 08:26:00,
2013-09-21 01:30:00,58.1,57.0,29.71,SSW,202,0.0,3.0,96,0.02,,---,0.02,0.00,VWS V14.01,2013-09-21 08:30:00,
2013-09-21 01:31:00,57.6,56.5,29.71,SSW,202,0.0,0.0,96,0.03,,---,0.05,0.00,VWS V14.01,2013-09-21 08:31:00,
2013-09-21 01:36:00,57.5,56.4,29.71,SSW,202,0.0,1.0,96,0.03,,---,0.05,0.00,VWS V14.01,2013-09-21 08:36:00,
2013-09-21 01:40:00,58.1,57.0,29.71,SSW,202,0.0,4.0,96,0.04,,---,0.04,0.00,VWS V14.01,2013-09-21 08:40:00,
2013-09-21 01:41:00,57.4,56.6,29.71,SSW,202,0.0,0.0,97,0.01,,---,0.05,0.00,VWS V14.01,2013-09-21 08:41:00,
2013-09-21 01:46:00,57.4,56.6,29.71,SSW,202,0.0,0.0,97,0.01,,---,0.05,0.00,VWS V14.01,2013-09-21 08:46:00,
2013-09-21 01:50:00,58.0,56.9,29.71,SSW,202,0.0,3.0,96,0.04,,---,0.04,0.00,VWS V14.01,2013-09-21 08:50:00,
2013-09-21 01:51:00,57.3,56.5,29.71,SSW,202,0.0,0.0,97,0.01,,---,0.05,0.00,VWS V14.01,2013-09-21 08:51:00,
2013-09-21 01:56:00,57.1,56.3,29.71,SSW,202,0.0,0.0,97,0.01,,---,0.05,0.00,VWS V14.01,2013-09-21 08:56:00,
2013-09-21 02:00:00,57.8,56.7,29.71,SSW,202,0.0,1.0,96,0.05,,---,0.05,0.00,VWS V14.01,2013-09-21 09:00:00,
2013-09-21 02:01:00,57.0,55.9,29.71,SSW,202,0.0,0.0,96,0.00,,---,0.05,0.00,VWS V14.01,2013-09-21 09:01:00,
2013-09-21 02:06:00,56.9,55.8,29.71,SSW,202,0.0,0.0,96,0.00,,---,0.05,0.00,VWS V14.01,2013-09-21 09:06:00,
2013-09-21 02:10:00,57.8,56.7,29.71,SSW,202,0.0,2.0,96,0.05,,---,0.05,0.00,VWS V14.01,2013-09-21 09:10:00,
2013-09-21 02:11:00,56.5,55.4,29.71,SSW,202,0.0,0.0,96,0.00,,---,0.05,0.00,VWS V14.01,2013-09-21 09:11:00,
2013-09-21 02:16:00,56.2,55.1,29.71,SSW,202,0.0,0.0,96,0.00,,---,0.05,0.00,VWS V14.01,2013-09-21 09:16:00,
2013-09-21 02:20:00,57.7,56.9,29.71,SSW,202,0.0,0.0,97,0.05,,---,0.05,0.00,VWS V14.01,2013-09-21 09:20:00,
2013-09-21 02:21:00,56.0,54.9,29.71,SSW,202,0.0,0.0,96,0.00,,---,0.05,0.00,VWS V14.01,2013-09-21 09:21:00,
2013-09-21 02:26:00,55.6,54.5,29.71,SSW,202,0.0,0.0,96,0.00,,---,0.05,0.00,VWS V14.01,2013-09-21 09:26:00,
2013-09-21 02:30:00,57.6,56.5,29.70,SSW,202,0.0,2.0,96,0.04,,---,0.05,0.00,VWS V14.01,2013-09-21 09:30:00,
2013-09-21 02:31:00,55.4,54.3,29.71,SSW,202,0.0,0.0,96,0.00,,---,0.05,0.00,VWS V14.01,2013-09-21 09:31:00,
2013-09-21 02:36:00,55.2,54.1,29.71,SSW,202,0.0,0.0,96,0.00,,---,0.05,0.00,VWS V14.01,2013-09-21 09:36:00,
2013-09-21 02:40:00,57.5,56.4,29.71,SSW,202,0.0,1.0,96,0.03,,---,0.05,0.00,VWS V14.01,2013-09-21 09:40:00,
2013-09-21 02:41:00,55.2,54.4,29.71,SSW,202,0.0,0.0,97,0.00,,---,0.05,0.00,VWS V14.01,2013-09-21 09:41:00,
2013-09-21 02:46:00,55.2,54.4,29.71,SSW,202,0.0,0.0,97,0.00,,---,0.05,0.00,VWS V14.01,2013-09-21 09:46:00,
2013-09-21 02:50:00,57.3,56.5,29.71,SSW,202,0.0,0.0,97,0.01,,---,0.05,0.00,VWS V14.01,2013-09-21 09:50:00,
2013-09-21 02:51:00,55.2,54.4,29.71,SSW,202,0.0,0.0,97,0.00,,---,0.05,0.00,VWS V14.01,2013-09-21 09:51:00,
2013-09-21 02:56:00,55.1,54.3,29.71,SSW,202,0.0,0.0,97,0.00,,---,0.05,0.00,VWS V14.01,2013-09-21 09:56:00,
2013-09-21 03:00:00,57.0,56.2,29.70,SSW,202,0.0,0.0,97,0.01,,---,0.05,0.00,VWS V14.01,2013-09-21 10:00:00,
2013-09-21 03:01:00,55.1,54.3,29.71,SSW,202,0.0,0.0,97,0.00,,---,0.05,0.00,VWS V14.01,2013-09-21 10:01:00,
2013-09-21 03:06:00,55.0,54.2,29.71,SSW,202,0.0,0.0,97,0.00,,---,0.05,0.00,VWS V14.01,2013-09-21 10:06:00,
2013-09-21 03:10:00,56.6,55.5,29.70,SSW,202,0.0,0.0,96,0.00,,---,0.05,0.00,VWS V14.01,2013-09-21 10:10:00,
2013-09-21 03:11:00,55.0,54.2,29.71,SSW,202,0.0,0.0,97,0.00,,---,0.05,0.00,VWS V14.01,2013-09-21 10:11:00,
2013-09-21 03:16:00,55.1,54.3,29.71,SSW,202,0.0,0.0,97,0.00,,---,0.05,0.00,VWS V14.01,2013-09-21 10:16:00,
2013-09-21 03:20:00,56.0,54.9,29.71,SSW,202,0.0,0.0,96,0.00,,---,0.05,0.00,VWS V14.01,2013-09-21 10:20:00,
2013-09-21 03:21:00,55.2,54.4,29.71,SSW,202,0.0,0.0,97,0.00,,---,0.05,0.00,VWS V14.01,2013-09-21 10:21:00,
2013-09-21 03:26:00,55.4,54.6,29.71,SSW,202,0.0,0.0,97,0.00,,---,0.05,0.00,VWS V14.01,2013-09-21 10:26:00,
2013-09-21 03:30:00,55.4,54.3,29.71,SSW,202,0.0,0.0,96,0.00,,---,0.05,0.00,VWS V14.01,2013-09-21 10:30:00,
2013-09-21 03:31:00,55.7,54.9,29.71,SSW,202,0.0,0.0,97,0.00,,---,0.05,0.00,VWS V14.01,2013-09-21 10:31:00,
2013-09-21 03:36:00,55.6,54.8,29.70,SSW,202,0.0,1.0,97,0.00,,---,0.05,0.00,VWS V14.01,2013-09-21 10:36:00,
2013-09-21 03:40:00,55.2,54.4,29.71,SSW,202,0.0,0.0,97,0.00,,---,0.05,0.00,VWS V14.01,2013-09-21 10:40:00,
2013-09-21 03:41:00,55.4,54.6,29.70,SSW,202,0.0,0.0,97,0.00,,---,0.05,0.00,VWS V14.01,2013-09-21 10:41:00,
2013-09-21 03:46:00,55.4,54.6,29.70,SSW,202,0.0,0.0,97,0.00,,---,0.05,0.00,VWS V14.01,2013-09-21 10:46:00,
2013-09-21 03:50:00,55.2,54.4,29.71,SSW,202,0.0,0.0,97,0.00,,---,0.05,0.00,VWS V14.01,2013-09-21 10:50:00,
2013-09-21 03:51:00,55.4,54.6,29.70,SSW,202,0.0,0.0,97,0.00,,---,0.05,0.00,VWS V14.01,2013-09-21 10:51:00,
2013-09-21 03:56:00,55.3,54.5,29.70,SSW,202,0.0,0.0,97,0.00,,---,0.05,0.00,VWS V14.01,2013-09-21 10:56:00,
2013-09-21 04:00:00,55.1,54.3,29.71,SSW,202,0.0,0.0,97,0.00,,---,0.05,0.00,VWS V14.01,2013-09-21 11:00:00,
2013-09-21 04:01:00,55.3,54.5,29.71,SSW,202,0.0,0.0,97,0.00,,---,0.05,0.00,VWS V14.01,2013-09-21 11:01:00,
2013-09-21 04:06:00,55.4,54.6,29.70,SSW,202,0.0,0.0,97,0.00,,---,0.05,0.00,VWS V14.01,2013-09-21 11:06:00,
2013-09-21 04:10:00,55.0,54.2,29.71,SSW,202,0.0,0.0,97,0.00,,---,0.05,0.00,VWS V14.01,2013-09-21 11:10:00,
2013-09-21 04:11:00,55.4,54.6,29.70,SSW,202,0.0,0.0,97,0.00,,---,0.05,0.00,VWS V14.01,2013-09-21 11:11:00,
2013-09-21 04:16:00,55.4,54.6,29.70,SSW,202,0.0,0.0,97,0.00,,---,0.05,0.00,VWS V14.01,2013-09-21 11:16:00,
2013-09-21 04:20:00,55.2,54.4,29.71,SSW,202,0.0,0.0,97,0.00,,---,0.05,0.00,VWS V14.01,2013-09-21 11:20:00,
2013-09-21 04:21:00,55.5,54.7,29.70,SSW,202,0.0,0.0,97,0.00,,---,0.05,0.00,VWS V14.01,2013-09-21 11:21:00,
2013-09-21 04:26:00,55.5,54.7,29.70,SSW,202,0.0,0.0,97,0.00,,---,0.05,0.00,VWS V14.01,2013-09-21 11:26:00,
2013-09-21 04:30:00,55.6,54.8,29.71,SSW,202,0.0,0.0,97,0.00,,---,0.05,0.00,VWS V14.01,2013-09-21 11:30:00,
2013-09-21 04:31:00,55.6,55.0,29.70,SSW,202,0.0,0.0,98,0.00,,---,0.05,0.00,VWS V14.01,2013-09-21 11:31:00,
2013-09-21 04:36:00,55.6,55.0,29.70,SSW,202,0.0,0.0,98,0.00,,---,0.05,0.00,VWS V14.01,2013-09-21 11:36:00,
2013-09-21 04:40:00,55.5,54.7,29.70,SSW,202,0.0,1.0,97,0.00,,---,0.05,0.00,VWS V14.01,2013-09-21 11:40:00,
2013-09-21 04:41:00,55.7,55.2,29.70,SSW,202,0.0,0.0,98,0.00,,---,0.05,0.00,VWS V14.01,2013-09-21 11:41:00,
2013-09-21 04:46:00,55.7,55.2,29.70,SSW,202,0.0,0.0,98,0.00,,---,0.05,0.00,VWS V14.01,2013-09-21 11:46:00,
2013-09-21 04:50:00,55.4,54.6,29.70,SSW,202,0.0,0.0,97,0.00,,---,0.05,0.00,VWS V14.01,2013-09-21 11:50:00,
2013-09-21 04:51:00,55.7,55.2,29.70,SSW,202,0.0,0.0,98,0.00,,---,0.05,0.00,VWS V14.01,2013-09-21 11:51:00,
2013-09-21 04:56:00,55.4,54.6,29.70,SSW,202,0.0,0.0,97,0.00,,---,0.05,0.00,VWS V14.01,2013-09-21 11:56:00,
2013-09-21 05:00:00,55.3,54.5,29.70,SSW,202,0.0,0.0,97,0.00,,---,0.05,0.00,VWS V14.01,2013-09-21 12:00:00,
2013-09-21 05:01:00,55.0,54.2,29.70,SSW,202,0.0,0.0,97,0.00,,---,0.05,0.00,VWS V14.01,2013-09-21 12:01:00,
2013-09-21 05:06:00,54.8,54.0,29.71,SSW,202,0.0,0.0,97,0.00,,---,0.05,0.00,VWS V14.01,2013-09-21 12:06:00,
2013-09-21 05:10:00,55.4,54.6,29.70,SSW,202,0.0,0.0,97,0.00,,---,0.05,0.00,VWS V14.01,2013-09-21 12:10:00,
2013-09-21 05:11:00,54.9,54.1,29.71,SSW,202,0.0,0.0,97,0.00,,---,0.05,0.00,VWS V14.01,2013-09-21 12:11:00,
2013-09-21 05:16:00,54.8,54.0,29.71,SSW,202,0.0,0.0,97,0.00,,---,0.05,0.00,VWS V14.01,2013-09-21 12:16:00,
2013-09-21 05:20:00,55.5,54.7,29.70,SSW,202,0.0,0.0,97,0.00,,---,0.05,0.00,VWS V14.01,2013-09-21 12:20:00,
2013-09-21 05:21:00,54.9,54.1,29.71,SSW,202,0.0,0.0,97,0.00,,---,0.05,0.00,VWS V14.01,2013-09-21 12:21:00,
2013-09-21 05:26:00,54.8,54.0,29.71,SSW,202,0.0,0.0,97,0.00,,---,0.05,0.00,VWS V14.01,2013-09-21 12:26:00,
2013-09-21 05:30:00,55.6,55.0,29.70,SSW,202,0.0,0.0,98,0.00,,---,0.05,0.00,VWS V14.01,2013-09-21 12:30:00,
2013-09-21 05:31:00,54.8,54.2,29.71,SSW,202,0.0,0.0,98,0.00,,---,0.05,0.00,VWS V14.01,2013-09-21 12:31:00,
2013-09-21 05:36:00,54.9,54.3,29.71,SSW,202,0.0,0.0,98,0.00,,---,0.05,0.00,VWS V14.01,2013-09-21 12:36:00,
2013-09-21 05:40:00,55.7,55.2,29.70,SSW,202,0.0,0.0,98,0.00,,---,0.05,0.00,VWS V14.01,2013-09-21 12:40:00,
2013-09-21 05:41:00,54.9,54.1,29.70,SSW,202,0.0,0.0,97,0.00,,---,0.05,0.00,VWS V14.01,2013-09-21 12:41:00,
2013-09-21 05:46:00,54.9,54.3,29.70,SSW,202,0.0,0.0,98,0.00,,---,0.05,0.00,VWS V14.01,2013-09-21 12:46:00,
2013-09-21 05:50:00,55.7,55.2,29.70,SSW,202,0.0,0.0,98,0.00,,---,0.05,0.00,VWS V14.01,2013-09-21 12:50:00,
2013-09-21 05:51:00,55.0,54.5,29.70,SSW,202,0.0,0.0,98,0.00,,---,0.05,0.00,VWS V14.01,2013-09-21 12:51:00,
2013-09-21 05:56:00,54.9,54.3,29.70,SSW,202,0.0,0.0,98,0.00,,---,0.05,0.00,VWS V14.01,2013-09-21 12:56:00,
2013-09-21 06:00:00,55.0,54.2,29.70,SSW,202,0.0,0.0,97,0.00,,---,0.05,0.00,VWS V14.01,2013-09-21 13:00:00,
2013-09-21 06:01:00,55.0,54.5,29.70,SSW,202,0.0,0.0,98,0.00,,---,0.05,0.00,VWS V14.01,2013-09-21 13:01:00,
2013-09-21 06:06:00,54.9,54.3,29.70,SSW,202,0.0,0.0,98,0.00,,---,0.05,0.00,VWS V14.01,2013-09-21 13:06:00,
2013-09-21 06:10:00,54.8,54.0,29.71,SSW,202,0.0,0.0,97,0.00,,---,0.05,0.00,VWS V14.01,2013-09-21 13:10:00,
2013-09-21 06:11:00,54.8,54.0,29.70,SSW,202,0.0,0.0,97,0.00,,---,0.05,0.00,VWS V14.01,2013-09-21 13:11:00,
2013-09-21 06:16:00,54.6,53.8,29.69,SSW,202,0.0,0.0,97,0.00,,---,0.05,0.00,VWS V14.01,2013-09-21 13:16:00,
2013-09-21 06:20:00,54.9,54.1,29.71,SSW,202,0.0,0.0,97,0.00,,---,0.05,0.00,VWS V14.01,2013-09-21 13:20:00,
2013-09-21 06:21:00,54.4,53.6,29.69,SSW,202,0.0,0.0,97,0.00,,---,0.05,0.00,VWS V14.01,2013-09-21 13:21:00,
2013-09-21 06:26:00,54.3,53.5,29.69,SSW,202,0.0,0.0,97,0.00,,---,0.05,0.00,VWS V14.01,2013-09-21 13:26:00,
2013-09-21 06:30:00,54.8,54.2,29.71,SSW,202,0.0,0.0,98,0.00,,---,0.05,0.00,VWS V14.01,2013-09-21 13:30:00,
2013-09-21 06:31:00,54.0,53.2,29.69,SSW,202,0.0,0.0,97,0.00,,---,0.05,0.00,VWS V14.01,2013-09-21 13:31:00,
2013-09-21 06:36:00,53.8,53.0,29.70,SSW,202,0.0,0.0,97,0.00,,---,0.05,0.00,VWS V14.01,2013-09-21 13:36:00,
2013-09-21 06:40:00,54.9,54.1,29.70,SSW,202,0.0,0.0,97,0.00,,---,0.05,0.00,VWS V14.01,2013-09-21 13:40:00,
2013-09-21 06:41:00,53.7,52.9,29.69,SSW,202,0.0,0.0,97,0.00,,---,0.05,0.00,VWS V14.01,2013-09-21 13:41:00,
2013-09-21 06:46:00,53.7,52.9,29.70,SSW,202,0.0,0.0,97,0.00,,---,0.05,0.00,VWS V14.01,2013-09-21 13:46:00,
2013-09-21 06:50:00,54.9,54.3,29.70,SSW,202,0.0,0.0,98,0.00,,---,0.05,0.00,VWS V14.01,2013-09-21 13:50:00,
2013-09-21 06:51:00,53.5,52.7,29.70,SSW,202,0.0,1.0,97,0.00,,---,0.05,0.00,VWS V14.01,2013-09-21 13:51:00,
2013-09-21 06:56:00,53.5,52.7,29.70,SSW,202,0.0,1.0,97,0.00,,---,0.05,0.00,VWS V14.01,2013-09-21 13:56:00,
2013-09-21 07:00:00,55.0,54.5,29.70,SSW,202,0.0,0.0,98,0.00,,---,0.05,0.00,VWS V14.01,2013-09-21 14:00:00,
2013-09-21 07:01:00,53.6,52.8,29.70,SSW,202,0.0,0.0,97,0.00,,---,0.05,0.00,VWS V14.01,2013-09-21 14:01:00,
2013-09-21 07:06:00,53.7,53.2,29.70,SSW,202,0.0,0.0,98,0.00,,---,0.05,0.00,VWS V14.01,2013-09-21 14:06:00,
2013-09-21 07:10:00,54.8,54.0,29.69,SSW,202,0.0,0.0,97,0.00,,---,0.05,0.00,VWS V14.01,2013-09-21 14:10:00,
2013-09-21 07:11:00,53.8,53.2,29.70,SSW,202,0.0,0.0,98,0.00,,---,0.05,7.00,VWS V14.01,2013-09-21 14:11:00,
2013-09-21 07:16:00,53.8,53.2,29.70,SSW,202,0.0,0.0,98,0.00,,---,0.05,9.00,VWS V14.01,2013-09-21 14:16:00,
2013-09-21 07:20:00,54.4,53.6,29.69,SSW,202,0.0,0.0,97,0.00,,---,0.05,0.00,VWS V14.01,2013-09-21 14:20:00,
2013-09-21 07:21:00,53.8,53.2,29.70,SSW,202,0.0,0.0,98,0.00,,---,0.05,12.00,VWS V14.01,2013-09-21 14:21:00,
2013-09-21 07:26:00,54.0,53.5,29.70,SSW,202,0.0,0.0,98,0.00,,---,0.05,21.00,VWS V14.01,2013-09-21 14:26:00,
2013-09-21 07:30:00,54.1,53.3,29.69,SSW,202,0.0,0.0,97,0.00,,---,0.05,0.00,VWS V14.01,2013-09-21 14:30:00,
2013-09-21 07:31:00,54.1,53.5,29.70,SSW,202,0.0,0.0,98,0.00,,---,0.05,37.00,VWS V14.01,2013-09-21 14:31:00,
2013-09-21 07:36:00,54.2,53.7,29.70,SSW,202,0.0,0.0,98,0.00,,---,0.05,53.00,VWS V14.01,2013-09-21 14:36:00,
2013-09-21 07:40:00,53.7,52.9,29.70,SSW,202,0.0,0.0,97,0.00,,---,0.05,0.00,VWS V14.01,2013-09-21 14:40:00,
2013-09-21 07:41:00,54.2,53.7,29.70,SSW,202,0.0,0.0,98,0.00,,---,0.05,53.00,VWS V14.01,2013-09-21 14:41:00,
2013-09-21 07:46:00,54.4,53.8,29.70,SSW,202,0.0,0.0,98,0.00,,---,0.05,51.00,VWS V14.01,2013-09-21 14:46:00,
2013-09-21 07:50:00,53.5,52.7,29.70,SSW,202,1.0,2.0,97,0.00,,---,0.05,0.00,VWS V14.01,2013-09-21 14:50:00,
2013-09-21 07:51:00,54.7,54.2,29.70,SSW,202,0.0,0.0,98,0.00,,---,0.05,42.00,VWS V14.01,2013-09-21 14:51:00,
2013-09-21 07:56:00,55.0,54.5,29.70,SSW,202,0.0,0.0,98,0.00,,---,0.05,44.00,VWS V14.01,2013-09-21 14:56:00,
2013-09-21 08:00:00,53.6,52.8,29.70,SSW,202,0.0,1.0,97,0.00,,---,0.05,0.00,VWS V14.01,2013-09-21 15:00:00,
2013-09-21 08:01:00,55.3,54.8,29.71,SSW,202,0.0,0.0,98,0.00,,---,0.05,58.00,VWS V14.01,2013-09-21 15:01:00,
2013-09-21 08:06:00,55.6,55.0,29.71,SSW,202,0.0,0.0,98,0.00,,---,0.05,58.00,VWS V14.01,2013-09-21 15:06:00,
2013-09-21 08:10:00,53.8,53.2,29.70,SSW,202,0.0,0.0,98,0.00,,---,0.05,7.00,VWS V14.01,2013-09-21 15:10:00,
2013-09-21 08:11:00,55.9,55.3,29.71,SSW,202,0.0,0.0,98,0.00,,---,0.05,67.00,VWS V14.01,2013-09-21 15:11:00,
2013-09-21 08:16:00,56.1,55.5,29.71,SSW,202,0.0,1.0,98,0.00,,---,0.05,93.00,VWS V14.01,2013-09-21 15:16:00,
2013-09-21 08:20:00,53.8,53.2,29.70,SSW,202,0.0,0.0,98,0.00,,---,0.05,12.00,VWS V14.01,2013-09-21 15:20:00,
2013-09-21 08:21:00,56.3,55.8,29.71,SSW,202,0.0,1.0,98,0.00,,---,0.05,111.00,VWS V14.01,2013-09-21 15:21:00,
2013-09-21 08:26:00,56.4,55.8,29.71,SSW,202,0.0,1.0,98,0.00,,---,0.05,98.00,VWS V14.01,2013-09-21 15:26:00,
2013-09-21 08:30:00,54.1,53.5,29.70,SSW,202,0.0,0.0,98,0.00,,---,0.05,33.00,VWS V14.01,2013-09-21 15:30:00,
2013-09-21 08:31:00,56.6,56.0,29.71,SSW,202,0.0,0.0,98,0.00,,---,0.05,102.00,VWS V14.01,2013-09-21 15:31:00,
2013-09-21 08:36:00,56.8,56.2,29.71,SSW,202,0.0,0.0,98,0.00,,---,0.05,90.00,VWS V14.01,2013-09-21 15:36:00,
2013-09-21 08:40:00,54.2,53.7,29.70,SSW,202,0.0,0.0,98,0.00,,---,0.05,53.00,VWS V14.01,2013-09-21 15:40:00,
2013-09-21 08:41:00,57.0,56.4,29.72,SSW,202,0.0,0.0,98,0.00,,---,0.05,93.00,VWS V14.01,2013-09-21 15:41:00,
2013-09-21 08:46:00,57.0,56.4,29.72,SSW,202,1.0,3.0,98,0.00,,---,0.05,95.00,VWS V14.01,2013-09-21 15:46:00,
2013-09-21 08:50:00,54.6,54.0,29.70,SSW,202,0.0,0.0,98,0.00,,---,0.05,42.00,VWS V14.01,2013-09-21 15:50:00,
2013-09-21 08:51:00,57.0,56.4,29.72,SSW,202,2.0,3.0,98,0.00,,---,0.05,118.00,VWS V14.01,2013-09-21 15:51:00,
2013-09-21 08:56:00,57.0,56.4,29.72,SSW,202,1.0,3.0,98,0.00,,---,0.05,107.00,VWS V14.01,2013-09-21 15:56:00,
2013-09-21 09:00:00,55.2,54.7,29.71,SSW,202,0.0,0.0,98,0.00,,---,0.05,54.00,VWS V14.01,2013-09-21 16:00:00,
2013-09-21 09:01:00,57.0,56.4,29.72,SSW,203,1.0,2.0,98,0.00,,---,0.05,107.00,VWS V14.01,2013-09-21 16:01:00,
2013-09-21 09:06:00,57.1,56.5,29.72,SSW,203,0.0,2.0,98,0.00,,---,0.05,114.00,VWS V14.01,2013-09-21 16:06:00,
2013-09-21 09:10:00,55.8,55.2,29.71,SSW,202,0.0,0.0,98,0.00,,---,0.05,63.00,VWS V14.01,2013-09-21 16:10:00,
2013-09-21 09:11:00,57.2,56.6,29.72,SSW,203,1.0,3.0,98,0.00,,---,0.05,137.00,VWS V14.01,2013-09-21 16:11:00,
2013-09-21 09:16:00,57.2,56.6,29.72,SSW,203,1.0,3.0,98,0.00,,---,0.05,109.00,VWS V14.01,2013-09-21 16:16:00,
2013-09-21 09:20:00,56.3,55.7,29.71,SSW,202,0.0,1.0,98,0.00,,---,0.05,111.00,VWS V14.01,2013-09-21 16:20:00,
2013-09-21 09:21:00,57.2,56.6,29.72,SSW,203,1.0,2.0,98,0.00,,---,0.05,98.00,VWS V14.01,2013-09-21 16:21:00,
2013-09-21 09:26:00,57.3,56.7,29.72,SSW,203,0.0,3.0,98,0.00,,---,0.05,77.00,VWS V14.01,2013-09-21 16:26:00,
2013-09-21 09:30:00,56.6,56.0,29.71,SSW,202,0.0,1.0,98,0.00,,---,0.05,102.00,VWS V14.01,2013-09-21 16:30:00,
2013-09-21 09:31:00,57.3,56.7,29.72,SSW,203,2.0,3.0,98,0.00,,---,0.05,79.00,VWS V14.01,2013-09-21 16:31:00,
2013-09-21 09:36:00,57.3,56.7,29.73,SSW,203,2.0,5.0,98,0.00,,---,0.05,65.00,VWS V14.01,2013-09-21 16:36:00,
2013-09-21 09:40:00,56.9,56.3,29.72,SSW,202,0.0,1.0,98,0.00,,---,0.05,91.00,VWS V14.01,2013-09-21 16:40:00,
2013-09-21 09:41:00,57.4,56.8,29.73,SSW,203,1.0,2.0,98,0.00,,---,0.05,107.00,VWS V14.01,2013-09-21 16:41:00,
2013-09-21 09:46:00,57.4,56.8,29.73,SSW,209,0.0,6.0,98,0.00,,---,0.05,128.00,VWS V14.01,2013-09-21 16:46:00,
2013-09-21 09:50:00,57.0,56.4,29.72,SSW,202,2.0,3.0,98,0.00,,---,0.05,113.00,VWS V14.01,2013-09-21 16:50:00,
2013-09-21 09:51:00,57.6,57.0,29.73,South,186,2.0,3.0,98,0.00,,---,0.05,123.00,VWS V14.01,2013-09-21 16:51:00,
2013-09-21 09:56:00,57.6,57.0,29.73,South,183,6.0,7.0,98,0.00,,---,0.05,111.00,VWS V14.01,2013-09-21 16:56:00,
2013-09-21 10:00:00,57.0,56.4,29.71,SSW,203,0.0,4.0,98,0.00,,---,0.05,113.00,VWS V14.01,2013-09-21 17:00:00,
2013-09-21 10:01:00,57.4,56.8,29.73,South,183,4.0,6.0,98,0.00,,---,0.05,114.00,VWS V14.01,2013-09-21 17:01:00,
2013-09-21 10:06:00,57.5,56.7,29.73,South,188,4.0,10.0,97,0.00,,---,0.05,158.00,VWS V14.01,2013-09-21 17:06:00,
2013-09-21 10:10:00,57.2,56.6,29.72,SSW,203,0.0,3.0,98,0.00,,---,0.05,130.00,VWS V14.01,2013-09-21 17:10:00,
2013-09-21 10:11:00,57.6,56.8,29.73,SSW,194,5.0,6.0,97,0.00,,---,0.05,172.00,VWS V14.01,2013-09-21 17:11:00,
2013-09-21 10:16:00,57.8,57.0,29.73,SSW,199,0.0,6.0,97,0.00,,---,0.05,165.00,VWS V14.01,2013-09-21 17:16:00,
2013-09-21 10:20:00,57.2,56.6,29.72,SSW,204,2.0,4.0,98,0.00,,---,0.05,104.00,VWS V14.01,2013-09-21 17:20:00,
2013-09-21 10:21:00,58.0,57.2,29.74,SSW,196,0.0,0.0,97,0.00,,---,0.05,137.00,VWS V14.01,2013-09-21 17:21:00,
2013-09-21 10:26:00,57.9,57.1,29.73,SSW,203,4.0,10.0,97,0.00,,---,0.05,151.00,VWS V14.01,2013-09-21 17:26:00,
2013-09-21 10:30:00,57.3,56.7,29.72,SSW,203,2.0,3.0,98,0.00,,---,0.05,79.00,VWS V14.01,2013-09-21 17:30:00,
2013-09-21 10:31:00,58.0,56.9,29.73,South,184,3.0,6.0,96,0.00,,---,0.05,181.00,VWS V14.01,2013-09-21 17:31:00,
2013-09-21 10:36:00,58.0,56.9,29.73,South,191,3.0,7.0,96,0.00,,---,0.05,221.00,VWS V14.01,2013-09-21 17:36:00,
2013-09-21 10:40:00,57.4,56.8,29.73,SSW,203,0.0,5.0,98,0.00,,---,0.05,104.00,VWS V14.01,2013-09-21 17:40:00,
2013-09-21 10:41:00,58.2,57.1,29.73,South,190,1.0,5.0,96,0.00,,---,0.05,257.00,VWS V14.01,2013-09-21 17:41:00,
2013-09-21 10:46:00,58.5,57.4,29.73,SSW,195,1.0,5.0,96,0.00,,---,0.05,272.00,VWS V14.01,2013-09-21 17:46:00,
2013-09-21 10:50:00,57.5,56.9,29.73,South,187,0.0,6.0,98,0.00,,---,0.05,127.00,VWS V14.01,2013-09-21 17:50:00,
2013-09-21 10:51:00,58.8,57.4,29.74,South,180,1.0,2.0,95,0.00,,---,0.05,357.00,VWS V14.01,2013-09-21 17:51:00,
2013-09-21 10:56:00,59.3,58.2,29.73,SSE,163,2.0,7.0,96,0.00,,---,0.05,378.00,VWS V14.01,2013-09-21 17:56:00,
2013-09-21 11:00:00,57.5,56.9,29.73,SSE,157,6.0,9.0,98,0.00,,---,0.05,107.00,VWS V14.01,2013-09-21 18:00:00,
2013-09-21 11:01:00,59.5,57.8,29.73,SSE,147,5.0,9.0,94,0.00,,---,0.05,288.00,VWS V14.01,2013-09-21 18:01:00,
2013-09-21 11:06:00,59.6,57.3,29.73,South,173,2.0,9.0,92,0.00,,---,0.05,329.00,VWS V14.01,2013-09-21 18:06:00,
2013-09-21 11:10:00,57.6,56.8,29.73,South,174,0.0,10.0,97,0.00,,---,0.05,172.00,VWS V14.01,2013-09-21 18:10:00,
2013-09-21 11:11:00,59.8,57.5,29.74,SSW,201,5.0,5.0,92,0.00,,---,0.05,357.00,VWS V14.01,2013-09-21 18:11:00,
2013-09-21 11:16:00,60.1,57.5,29.73,SSW,198,5.0,9.0,91,0.00,,---,0.05,547.00,VWS V14.01,2013-09-21 18:16:00,
2013-09-21 11:20:00,58.0,57.2,29.74,SSW,196,0.0,6.0,97,0.00,,---,0.05,137.00,VWS V14.01,2013-09-21 18:20:00,
2013-09-21 11:21:00,60.7,58.4,29.73,SSW,193,0.0,4.0,92,0.00,,---,0.05,322.00,VWS V14.01,2013-09-21 18:21:00,
2013-09-21 11:26:00,60.9,58.0,29.73,WSW,251,6.0,6.0,90,0.00,,---,0.05,422.00,VWS V14.01,2013-09-21 18:26:00,
2013-09-21 11:30:00,58.0,56.9,29.73,South,191,6.0,10.0,96,0.00,,---,0.05,174.00,VWS V14.01,2013-09-21 18:30:00,
2013-09-21 11:31:00,61.0,57.4,29.73,SW,232,2.0,6.0,88,0.00,,---,0.05,457.00,VWS V14.01,2013-09-21 18:31:00,
2013-09-21 11:36:00,61.2,57.6,29.73,WSW,241,5.0,7.0,88,0.00,,---,0.05,608.00,VWS V14.01,2013-09-21 18:36:00,
2013-09-21 11:40:00,58.2,57.1,29.73,SSW,193,4.0,7.0,96,0.00,,---,0.05,257.00,VWS V14.01,2013-09-21 18:40:00,
2013-09-21 11:41:00,61.3,57.4,29.73,SSE,157,3.0,5.0,87,0.00,,---,0.05,380.00,VWS V14.01,2013-09-21 18:41:00,
2013-09-21 11:46:00,61.6,57.7,29.73,South,188,4.0,7.0,87,0.00,,---,0.05,380.00,VWS V14.01,2013-09-21 18:46:00,
2013-09-21 11:50:00,58.8,57.7,29.73,South,180,0.0,5.0,96,0.00,,---,0.05,367.00,VWS V14.01,2013-09-21 18:50:00,
2013-09-21 11:51:00,61.7,56.8,29.73,South,187,6.0,7.0,84,0.00,,---,0.05,708.00,VWS V14.01,2013-09-21 18:51:00,
2013-09-21 11:56:00,61.9,56.7,29.73,South,176,2.0,10.0,83,0.00,,---,0.05,722.00,VWS V14.01,2013-09-21 18:56:00,
2013-09-21 12:00:00,59.5,58.1,29.73,South,186,5.0,7.0,95,0.00,,---,0.05,418.00,VWS V14.01,2013-09-21 19:00:00,
2013-09-21 12:01:00,62.3,57.4,29.74,SW,229,4.0,4.0,84,0.00,,---,0.05,211.00,VWS V14.01,2013-09-21 19:01:00,
2013-09-21 12:06:00,62.2,57.0,29.74,South,173,2.0,7.0,83,0.00,,---,0.05,237.00,VWS V14.01,2013-09-21 19:06:00,
2013-09-21 12:10:00,59.8,57.5,29.73,South,169,3.0,9.0,92,0.00,,---,0.05,327.00,VWS V14.01,2013-09-21 19:10:00,
2013-09-21 12:11:00,62.0,57.1,29.73,WSW,250,6.0,6.0,84,0.00,,---,0.05,320.00,VWS V14.01,2013-09-21 19:11:00,
2013-09-21 12:16:00,62.0,56.5,29.74,South,171,2.0,9.0,82,0.00,,---,0.05,316.00,VWS V14.01,2013-09-21 19:16:00,
2013-09-21 12:20:00,60.6,58.3,29.73,SSW,193,4.0,9.0,92,0.00,,---,0.05,392.00,VWS V14.01,2013-09-21 19:20:00,
2013-09-21 12:21:00,61.9,56.0,29.74,SW,229,6.0,10.0,81,0.00,,---,0.05,338.00,VWS V14.01,2013-09-21 19:21:00,
2013-09-21 12:26:00,61.7,56.5,29.74,South,181,5.0,12.0,83,0.00,,---,0.05,348.00,VWS V14.01,2013-09-21 19:26:00,
2013-09-21 12:30:00,60.9,57.6,29.73,West,261,6.0,6.0,89,0.00,,---,0.05,485.00,VWS V14.01,2013-09-21 19:30:00,
2013-09-21 12:31:00,61.8,56.2,29.74,South,185,3.0,4.0,82,0.00,,---,0.05,346.00,VWS V14.01,2013-09-21 19:31:00,
2013-09-21 12:36:00,61.9,56.3,29.74,South,178,0.0,10.0,82,0.00,,---,0.05,329.00,VWS V14.01,2013-09-21 19:36:00,
2013-09-21 12:40:00,61.2,57.3,29.73,SSE,168,5.0,8.0,87,0.00,,---,0.05,380.00,VWS V14.01,2013-09-21 19:40:00,
2013-09-21 12:41:00,61.9,56.0,29.74,SSE,150,5.0,7.0,81,0.00,,---,0.05,320.00,VWS V14.01,2013-09-21 19:41:00,
2013-09-21 12:46:00,61.8,56.2,29.74,South,185,5.0,10.0,82,0.00,,---,0.05,241.00,VWS V14.01,2013-09-21 19:46:00,
2013-09-21 12:50:00,61.7,56.8,29.73,South,186,7.0,10.0,84,0.00,,---,0.05,708.00,VWS V14.01,2013-09-21 19:50:00,
2013-09-21 12:51:00,61.7,55.8,29.74,SSW,202,3.0,10.0,81,0.00,,---,0.05,243.00,VWS V14.01,2013-09-21 19:51:00,
2013-09-21 12:56:00,61.8,56.2,29.75,SW,218,2.0,10.0,82,0.00,,---,0.05,443.00,VWS V14.01,2013-09-21 19:56:00,
2013-09-21 13:00:00,62.2,57.3,29.74,SSW,193,3.0,10.0,84,0.00,,---,0.05,250.00,VWS V14.01,2013-09-21 20:00:00,
2013-09-21 13:01:00,62.3,56.7,29.74,SE,140,5.0,5.0,82,0.00,,---,0.05,524.00,VWS V14.01,2013-09-21 20:01:00,
2013-09-21 13:06:00,62.7,55.8,29.74,West,263,0.0,7.0,78,0.00,,---,0.05,401.00,VWS V14.01,2013-09-21 20:06:00,
2013-09-21 13:10:00,62.9,55.6,29.74,West,263,5.0,6.0,77,0.00,,---,0.05,295.00,VWS V14.01,2013-09-21 20:10:00,
2013-09-21 13:15:00,62.9,54.9,29.74,SSW,207,2.0,7.0,75,0.00,,---,0.05,406.00,VWS V14.01,2013-09-21 20:15:00,
2013-09-21 13:20:00,63.1,55.1,29.74,WSW,248,7.0,7.0,75,0.00,,---,0.05,497.00,VWS V14.01,2013-09-21 20:20:00,
2013-09-21 13:25:00,63.3,55.2,29.74,SSW,201,5.0,11.0,75,0.00,,---,0.05,390.00,VWS V14.01,2013-09-21 20:25:00,
2013-09-21 13:30:00,63.4,54.2,29.74,SSW,200,9.0,9.0,72,0.00,,---,0.05,441.00,VWS V14.01,2013-09-21 20:30:00,
2013-09-21 13:35:00,63.4,53.1,29.74,SSW,203,4.0,10.0,69,0.00,,---,0.05,538.00,VWS V14.01,2013-09-21 20:35:00,
2013-09-21 13:40:00,63.6,54.0,29.74,SW,234,4.0,9.0,71,0.00,,---,0.05,385.00,VWS V14.01,2013-09-21 20:40:00,
2013-09-21 13:45:00,63.8,54.2,29.74,West,269,2.0,9.0,71,0.00,,---,0.05,397.00,VWS V14.01,2013-09-21 20:45:00,
2013-09-21 13:50:00,64.0,54.0,29.74,SW,215,6.0,6.0,70,0.00,,---,0.05,510.00,VWS V14.01,2013-09-21 20:50:00,
2013-09-21 13:56:00,64.0,54.4,29.74,South,178,6.0,11.0,71,0.00,,---,0.05,443.00,VWS V14.01,2013-09-21 20:56:00,
2013-09-21 14:00:00,62.3,57.1,29.74,South,183,1.0,10.0,83,0.00,,---,0.05,524.00,VWS V14.01,2013-09-21 21:00:00,
2013-09-21 14:01:00,64.1,55.3,29.74,SW,222,8.0,11.0,73,0.00,,---,0.05,436.00,VWS V14.01,2013-09-21 21:01:00,
2013-09-21 14:06:00,64.2,55.8,29.74,WSW,244,5.0,11.0,74,0.00,,---,0.05,378.00,VWS V14.01,2013-09-21 21:06:00,
2013-09-21 14:10:00,64.1,54.5,29.74,WSW,244,6.0,11.0,71,0.00,,---,0.05,343.00,VWS V14.01,2013-09-21 21:10:00,
2013-09-21 14:15:00,64.0,55.2,29.74,SSW,194,3.0,11.0,73,0.00,,---,0.05,443.00,VWS V14.01,2013-09-21 21:15:00,
2013-09-21 14:20:00,64.2,55.0,29.74,South,169,6.0,6.0,72,0.00,,---,0.05,461.00,VWS V14.01,2013-09-21 21:20:00,
2013-09-21 14:25:00,64.4,55.2,29.74,SSE,165,4.0,8.0,72,0.00,,---,0.05,415.00,VWS V14.01,2013-09-21 21:25:00,
2013-09-21 14:30:00,64.3,54.3,29.74,South,173,3.0,6.0,70,0.00,,---,0.05,420.00,VWS V14.01,2013-09-21 21:30:00,
2013-09-21 14:35:00,64.2,53.8,29.74,South,178,4.0,10.0,69,0.00,,---,0.05,473.00,VWS V14.01,2013-09-21 21:35:00,
2013-09-21 14:40:00,64.4,54.4,29.74,SSW,193,3.0,3.0,70,0.00,,---,0.05,483.00,VWS V14.01,2013-09-21 21:40:00,
2013-09-21 14:45:00,64.7,53.5,29.74,SSW,194,0.0,7.0,67,0.00,,---,0.05,443.00,VWS V14.01,2013-09-21 21:45:00,
2013-09-21 14:50:00,65.1,54.3,29.73,WSW,258,5.0,5.0,68,0.00,,---,0.05,594.00,VWS V14.01,2013-09-21 21:50:00,
2013-09-21 14:55:00,65.3,54.1,29.73,SSE,166,3.0,7.0,67,0.00,,---,0.05,557.00,VWS V14.01,2013-09-21 21:55:00,
2013-09-21 15:00:00,65.9,54.2,29.73,SW,236,1.0,4.0,66,0.00,,---,0.05,524.00,VWS V14.01,2013-09-21 22:00:00,
2013-09-21 15:06:00,66.0,53.5,29.74,West,263,4.0,8.0,64,0.00,,---,0.05,279.00,VWS V14.01,2013-09-21 22:06:00,
2013-09-21 15:10:00,64.1,54.9,29.74,SW,223,11.0,12.0,72,0.00,,---,0.05,352.00,VWS V14.01,2013-09-21 22:10:00,
2013-09-21 15:11:00,65.5,53.8,29.74,SW,236,2.0,5.0,66,0.00,,---,0.05,325.00,VWS V14.01,2013-09-21 22:11:00,
2013-09-21 15:16:00,65.2,55.2,29.74,WSW,247,7.0,11.0,70,0.00,,---,0.05,403.00,VWS V14.01,2013-09-21 22:16:00,
2013-09-21 15:20:00,64.2,55.0,29.74,SSW,202,4.0,13.0,72,0.00,,---,0.05,452.00,VWS V14.01,2013-09-21 22:20:00,
2013-09-21 15:21:00,65.1,54.3,29.74,West,279,6.0,7.0,68,0.00,,---,0.05,369.00,VWS V14.01,2013-09-21 22:21:00,
2013-09-21 15:26:00,64.8,54.4,29.74,West,259,6.0,12.0,69,0.00,,---,0.05,392.00,VWS V14.01,2013-09-21 22:26:00,
2013-09-21 15:30:00,64.3,54.3,29.74,South,176,5.0,10.0,70,0.00,,---,0.05,420.00,VWS V14.01,2013-09-21 22:30:00,
2013-09-21 15:31:00,64.5,54.9,29.74,WSW,246,4.0,5.0,71,0.00,,---,0.05,649.00,VWS V14.01,2013-09-21 22:31:00,
2013-09-21 15:36:00,64.6,54.6,29.74,West,280,1.0,11.0,70,0.00,,---,0.05,677.00,VWS V14.01,2013-09-21 22:36:00,
2013-09-21 15:40:00,64.4,54.4,29.74,South,191,3.0,10.0,70,0.00,,---,0.05,483.00,VWS V14.01,2013-09-21 22:40:00,
2013-09-21 15:41:00,65.0,55.0,29.74,SSW,200,0.0,3.0,70,0.00,,---,0.05,288.00,VWS V14.01,2013-09-21 22:41:00,
2013-09-21 15:46:00,65.0,55.0,29.74,WSW,242,2.0,7.0,70,0.00,,---,0.05,346.00,VWS V14.01,2013-09-21 22:46:00,
2013-09-21 15:50:00,65.0,54.2,29.74,WSW,239,1.0,7.0,68,0.00,,---,0.05,504.00,VWS V14.01,2013-09-21 22:50:00,
2013-09-21 15:51:00,64.9,54.5,29.74,South,170,3.0,4.0,69,0.00,,---,0.05,316.00,VWS V14.01,2013-09-21 22:51:00,
2013-09-21 15:56:00,64.7,54.7,29.74,WSW,244,6.0,10.0,70,0.00,,---,0.05,369.00,VWS V14.01,2013-09-21 22:56:00,
2013-09-21 16:00:00,65.8,55.4,29.74,WSW,241,3.0,8.0,69,0.00,,---,0.05,524.00,VWS V14.01,2013-09-21 23:00:00,
2013-09-21 16:01:00,64.7,55.1,29.74,SW,223,4.0,4.0,71,0.00,,---,0.05,380.00,VWS V14.01,2013-09-21 23:01:00,
2013-09-21 16:06:00,64.9,54.9,29.74,South,185,4.0,9.0,70,0.00,,---,0.05,271.00,VWS V14.01,2013-09-21 23:06:00,
2013-09-21 16:10:00,65.5,53.8,29.74,West,269,2.0,8.0,66,0.00,,---,0.05,315.00,VWS V14.01,2013-09-21 23:10:00,
2013-09-21 16:11:00,64.8,54.8,29.74,SW,236,3.0,3.0,70,0.00,,---,0.05,190.00,VWS V14.01,2013-09-21 23:11:00,
2013-09-21 16:16:00,64.7,55.1,29.74,SSW,201,0.0,6.0,71,0.00,,---,0.05,125.00,VWS V14.01,2013-09-21 23:16:00,
2013-09-21 16:20:00,65.1,55.1,29.74,SW,228,3.0,11.0,70,0.00,,---,0.05,367.00,VWS V14.01,2013-09-21 23:20:00,
2013-09-21 16:21:00,64.5,55.3,29.75,SSW,199,0.0,3.0,72,0.00,,---,0.05,116.00,VWS V14.01,2013-09-21 23:21:00,
2013-09-21 16:26:00,64.5,55.3,29.75,West,269,1.0,5.0,72,0.00,,---,0.05,156.00,VWS V14.01,2013-09-21 23:26:00,
2013-09-21 16:30:00,64.5,54.5,29.74,WSW,242,4.0,12.0,70,0.00,,---,0.05,517.00,VWS V14.01,2013-09-21 23:30:00,
2013-09-21 16:31:00,64.4,55.2,29.75,West,261,3.0,4.0,72,0.00,,---,0.05,165.00,VWS V14.01,2013-09-21 23:31:00,
2013-09-21 16:35:00,64.3,55.5,29.75,West,267,2.0,4.0,73,0.00,,---,0.05,146.00,VWS V14.01,2013-09-21 23:35:00,
2013-09-21 16:40:00,64.3,55.1,29.75,West,262,1.0,2.0,72,0.00,,---,0.05,144.00,VWS V14.01,2013-09-21 23:40:00,
2013-09-21 16:45:00,64.4,54.4,29.75,WSW,248,5.0,6.0,70,0.00,,---,0.05,202.00,VWS V14.01,2013-09-21 23:45:00,
2013-09-21 16:50:00,64.5,53.7,29.75,SSW,213,5.0,8.0,68,0.00,,---,0.05,236.00,VWS V14.01,2013-09-21 23:50:00,
2013-09-21 16:55:00,64.6,53.8,29.75,SSE,165,3.0,8.0,68,0.00,,---,0.05,216.00,VWS V14.01,2013-09-21 23:55:00,
2013-09-21 17:00:00,64.6,54.2,29.75,SSW,192,6.0,7.0,69,0.00,,---,0.05,135.00,VWS V14.01,2013-09-22 00:00:00,
2013-09-21 17:05:00,64.4,54.0,29.75,SSW,205,4.0,9.0,69,0.00,,---,0.05,149.00,VWS V14.01,2013-09-22 00:05:00,
2013-09-21 17:10:00,64.3,54.3,29.75,WSW,251,5.0,5.0,70,0.00,,---,0.05,104.00,VWS V14.01,2013-09-22 00:10:00,
2013-09-21 17:15:00,64.1,54.9,29.76,WSW,248,7.0,9.0,72,0.00,,---,0.05,155.00,VWS V14.01,2013-09-22 00:15:00,
2013-09-21 17:20:00,63.5,54.7,29.75,SW,227,7.0,7.0,73,0.00,,---,0.05,144.00,VWS V14.01,2013-09-22 00:20:00,
2013-09-21 17:25:00,63.0,53.8,29.75,SSW,209,2.0,10.0,72,0.00,,---,0.05,301.00,VWS V14.01,2013-09-22 00:25:00,
2013-09-21 17:30:00,63.0,53.8,29.75,SW,215,4.0,10.0,72,0.00,,---,0.05,334.00,VWS V14.01,2013-09-22 00:30:00,
2013-09-21 17:35:00,62.9,53.8,29.75,SSW,200,4.0,10.0,72,0.00,,---,0.05,109.00,VWS V14.01,2013-09-22 00:35:00,
2013-09-21 17:40:00,62.6,54.2,29.75,WSW,254,4.0,4.0,74,0.00,,---,0.05,146.00,VWS V14.01,2013-09-22 00:40:00,
2013-09-21 17:45:00,62.4,54.4,29.75,SW,223,8.0,10.0,75,0.00,,---,0.05,153.00,VWS V14.01,2013-09-22 00:45:00,
2013-09-21 17:50:00,62.5,54.5,29.75,SSW,195,1.0,1.0,75,0.00,,---,0.05,214.00,VWS V14.01,2013-09-22 00:50:00,
2013-09-21 17:55:00,62.7,54.3,29.75,SW,224,1.0,5.0,74,0.00,,---,0.05,183.00,VWS V14.01,2013-09-22 00:55:00,
2013-09-21 18:00:00,63.0,55.0,29.75,WSW,240,6.0,7.0,75,0.00,,---,0.05,153.00,VWS V14.01,2013-09-22 01:00:00,
2013-09-21 18:05:00,62.8,54.4,29.75,SSW,194,1.0,7.0,74,0.00,,---,0.05,46.00,VWS V14.01,2013-09-22 01:05:00,
2013-09-21 18:10:00,62.3,54.3,29.75,South,184,2.0,3.0,75,0.00,,---,0.05,28.00,VWS V14.01,2013-09-22 01:10:00,
2013-09-21 18:15:00,61.8,54.5,29.75,SW,219,3.0,5.0,77,0.00,,---,0.05,28.00,VWS V14.01,2013-09-22 01:15:00,
2013-09-21 18:20:00,61.4,54.5,29.76,SW,229,1.0,1.0,78,0.00,,---,0.05,37.00,VWS V14.01,2013-09-22 01:20:00,
2013-09-21 18:25:00,61.2,54.6,29.76,SW,229,0.0,5.0,79,0.00,,---,0.05,63.00,VWS V14.01,2013-09-22 01:25:00,
2013-09-21 18:30:00,61.3,55.1,29.76,SW,229,0.0,0.0,80,0.00,,---,0.05,51.00,VWS V14.01,2013-09-22 01:30:00,
2013-09-21 18:35:00,61.5,55.3,29.76,SW,229,2.0,3.0,80,0.00,,---,0.05,30.00,VWS V14.01,2013-09-22 01:35:00,
2013-09-21 18:40:00,61.5,55.3,29.76,SW,229,0.0,0.0,80,0.00,,---,0.05,21.00,VWS V14.01,2013-09-22 01:40:00,
2013-09-21 18:45:00,61.2,55.0,29.76,SW,229,3.0,3.0,80,0.00,,---,0.05,16.00,VWS V14.01,2013-09-22 01:45:00,
2013-09-21 18:50:00,61.0,55.1,29.77,SW,229,0.0,0.0,81,0.00,,---,0.05,19.00,VWS V14.01,2013-09-22 01:50:00,
2013-09-21 18:55:00,60.7,54.8,29.76,SW,229,0.0,1.0,81,0.00,,---,0.05,9.00,VWS V14.01,2013-09-22 01:55:00,
2013-09-21 19:00:00,60.5,55.0,29.77,SW,229,0.0,0.0,82,0.00,,---,0.05,7.00,VWS V14.01,2013-09-22 02:00:00,
2013-09-21 19:05:00,60.3,54.8,29.77,SW,229,0.0,0.0,82,0.00,,---,0.05,5.00,VWS V14.01,2013-09-22 02:05:00,
2013-09-21 19:10:00,60.0,54.8,29.77,SW,229,0.0,0.0,83,0.00,,---,0.05,0.00,VWS V14.01,2013-09-22 02:10:00,
2013-09-21 19:15:00,59.7,54.5,29.77,SW,229,0.0,0.0,83,0.00,,---,0.05,0.00,VWS V14.01,2013-09-22 02:15:00,
2013-09-21 19:20:00,59.3,54.5,29.77,SW,229,0.0,0.0,84,0.00,,---,0.05,0.00,VWS V14.01,2013-09-22 02:20:00,
2013-09-21 19:25:00,59.3,54.8,29.77,SW,229,0.0,0.0,85,0.00,,---,0.05,0.00,VWS V14.01,2013-09-22 02:25:00,
2013-09-21 19:30:00,58.8,54.6,29.77,SW,229,0.0,0.0,86,0.00,,---,0.05,0.00,VWS V14.01,2013-09-22 02:30:00,
2013-09-21 19:35:00,58.5,54.7,29.78,SW,229,0.0,0.0,87,0.00,,---,0.05,0.00,VWS V14.01,2013-09-22 02:35:00,
2013-09-21 19:40:00,58.1,54.3,29.78,SW,229,0.0,0.0,87,0.00,,---,0.05,0.00,VWS V14.01,2013-09-22 02:40:00,
2013-09-21 19:45:00,57.5,54.0,29.77,SW,229,0.0,0.0,88,0.00,,---,0.05,0.00,VWS V14.01,2013-09-22 02:45:00,
2013-09-21 19:50:00,57.2,54.0,29.78,SW,229,0.0,0.0,89,0.00,,---,0.05,0.00,VWS V14.01,2013-09-22 02:50:00,
2013-09-21 19:55:00,57.0,54.1,29.78,SW,229,0.0,0.0,90,0.00,,---,0.05,0.00,VWS V14.01,2013-09-22 02:55:00,
2013-09-21 20:00:00,56.9,54.3,29.78,SW,229,0.0,0.0,91,0.00,,---,0.05,0.00,VWS V14.01,2013-09-22 03:00:00,
2013-09-21 20:05:00,57.0,54.4,29.78,SW,229,0.0,0.0,91,0.00,,---,0.05,0.00,VWS V14.01,2013-09-22 03:05:00,
2013-09-21 20:10:00,57.0,54.4,29.78,SW,229,0.0,0.0,91,0.00,,---,0.05,0.00,VWS V14.01,2013-09-22 03:10:00,
2013-09-21 20:15:00,56.8,54.2,29.78,SW,229,0.0,0.0,91,0.00,,---,0.05,0.00,VWS V14.01,2013-09-22 03:15:00,
2013-09-21 20:20:00,56.6,54.0,29.78,SW,229,0.0,0.0,91,0.00,,---,0.05,0.00,VWS V14.01,2013-09-22 03:20:00,
2013-09-21 20:25:00,56.7,54.4,29.78,SW,229,1.0,1.0,92,0.00,,---,0.05,0.00,VWS V14.01,2013-09-22 03:25:00,
2013-09-21 20:30:00,56.8,54.8,29.78,SW,229,0.0,0.0,93,0.00,,---,0.05,0.00,VWS V14.01,2013-09-22 03:30:00,
2013-09-21 20:35:00,57.0,55.0,29.78,SW,229,0.0,2.0,93,0.00,,---,0.05,0.00,VWS V14.01,2013-09-22 03:35:00,
2013-09-21 20:40:00,57.3,55.3,29.78,South,173,0.0,0.0,93,0.00,,---,0.05,0.00,VWS V14.01,2013-09-22 03:40:00,
2013-09-21 20:45:00,57.5,55.5,29.78,South,173,0.0,2.0,93,0.00,,---,0.05,0.00,VWS V14.01,2013-09-22 03:45:00,
2013-09-21 20:50:00,57.6,55.6,29.79,South,173,0.0,0.0,93,0.00,,---,0.05,0.00,VWS V14.01,2013-09-22 03:50:00,
2013-09-21 20:55:00,57.7,55.7,29.79,South,173,0.0,1.0,93,0.00,,---,0.05,0.00,VWS V14.01,2013-09-22 03:55:00,
2013-09-21 21:00:00,57.7,55.7,29.79,South,173,0.0,0.0,93,0.00,,---,0.05,0.00,VWS V14.01,2013-09-22 04:00:00,
2013-09-21 21:01:00,57.7,55.7,29.79,South,173,0.0,0.0,93,0.00,,---,0.05,0.00,VWS V14.01,2013-09-22 04:01:00,
2013-09-21 21:06:00,57.8,55.8,29.79,South,173,0.0,3.0,93,0.00,,---,0.05,0.00,VWS V14.01,2013-09-22 04:06:00,
2013-09-21 21:10:00,57.0,54.4,29.78,SW,229,0.0,0.0,91,0.00,,---,0.05,0.00,VWS V14.01,2013-09-22 04:10:00,
2013-09-21 21:11:00,57.8,55.8,29.79,South,173,0.0,1.0,93,0.00,,---,0.05,0.00,VWS V14.01,2013-09-22 04:11:00,
2013-09-21 21:16:00,57.8,55.8,29.79,South,173,1.0,2.0,93,0.00,,---,0.05,0.00,VWS V14.01,2013-09-22 04:16:00,
2013-09-21 21:20:00,56.7,54.1,29.78,SW,229,0.0,0.0,91,0.00,,---,0.05,0.00,VWS V14.01,2013-09-22 04:20:00,
2013-09-21 21:21:00,57.8,55.8,29.79,South,173,0.0,0.0,93,0.00,,---,0.05,0.00,VWS V14.01,2013-09-22 04:21:00,
2013-09-21 21:26:00,57.8,55.5,29.79,South,173,0.0,0.0,92,0.00,,---,0.05,0.00,VWS V14.01,2013-09-22 04:26:00,
2013-09-21 21:30:00,56.8,54.8,29.78,SW,229,0.0,2.0,93,0.00,,---,0.05,0.00,VWS V14.01,2013-09-22 04:30:00,
2013-09-21 21:31:00,57.8,55.8,29.79,South,173,0.0,1.0,93,0.00,,---,0.05,0.00,VWS V14.01,2013-09-22 04:31:00,
2013-09-21 21:36:00,57.9,55.9,29.79,South,173,0.0,1.0,93,0.00,,---,0.05,0.00,VWS V14.01,2013-09-22 04:36:00,
2013-09-21 21:40:00,57.3,55.3,29.78,South,173,0.0,4.0,93,0.00,,---,0.05,0.00,VWS V14.01,2013-09-22 04:40:00,
2013-09-21 21:41:00,58.0,56.0,29.79,South,173,0.0,2.0,93,0.00,,---,0.05,0.00,VWS V14.01,2013-09-22 04:41:00,
2013-09-21 21:46:00,58.0,56.0,29.79,South,173,0.0,3.0,93,0.00,,---,0.05,0.00,VWS V14.01,2013-09-22 04:46:00,
2013-09-21 21:50:00,57.6,55.6,29.79,South,173,0.0,2.0,93,0.00,,---,0.05,0.00,VWS V14.01,2013-09-22 04:50:00,
2013-09-21 21:51:00,58.0,56.0,29.79,South,173,0.0,0.0,93,0.00,,---,0.05,0.00,VWS V14.01,2013-09-22 04:51:00,
2013-09-21 21:56:00,58.0,56.0,29.80,South,173,2.0,2.0,93,0.00,,---,0.05,0.00,VWS V14.01,2013-09-22 04:56:00,
2013-09-21 22:00:00,57.7,55.7,29.79,South,173,0.0,1.0,93,0.00,,---,0.05,0.00,VWS V14.01,2013-09-22 05:00:00,
2013-09-21 22:01:00,58.0,56.0,29.80,South,173,0.0,0.0,93,0.00,,---,0.05,0.00,VWS V14.01,2013-09-22 05:01:00,
2013-09-21 22:06:00,58.0,56.3,29.80,South,173,0.0,1.0,94,0.00,,---,0.05,0.00,VWS V14.01,2013-09-22 05:06:00,
2013-09-21 22:10:00,57.8,55.8,29.79,South,173,1.0,3.0,93,0.00,,---,0.05,0.00,VWS V14.01,2013-09-22 05:10:00,
2013-09-21 22:11:00,57.9,56.2,29.80,South,173,2.0,2.0,94,0.00,,---,0.05,0.00,VWS V14.01,2013-09-22 05:11:00,
2013-09-21 22:16:00,57.9,56.2,29.80,South,173,0.0,2.0,94,0.00,,---,0.05,0.00,VWS V14.01,2013-09-22 05:16:00,
2013-09-21 22:20:00,57.8,55.8,29.79,South,173,0.0,2.0,93,0.00,,---,0.05,0.00,VWS V15.00,2013-09-22 05:20:00,
2013-09-21 22:21:00,57.8,56.1,29.80,South,173,0.0,2.0,94,0.00,,---,0.05,0.00,VWS V14.01,2013-09-22 05:21:00,
2013-09-21 22:26:00,57.7,56.0,29.80,South,173,0.0,2.0,94,0.00,,---,0.05,0.00,VWS V14.01,2013-09-22 05:26:00,
2013-09-21 22:30:00,57.8,55.8,29.79,South,173,0.0,0.0,93,0.00,,---,0.05,0.00,VWS V14.01,2013-09-22 05:30:00,
2013-09-21 22:31:00,57.6,55.9,29.80,South,173,0.0,2.0,94,0.00,,---,0.05,0.00,VWS V14.01,2013-09-22 05:31:00,
2013-09-21 22:36:00,57.5,55.8,29.80,South,173,0.0,3.0,94,0.00,,---,0.05,0.00,VWS V14.01,2013-09-22 05:36:00,
2013-09-21 22:40:00,58.0,56.0,29.79,South,173,1.0,3.0,93,0.00,,---,0.05,0.00,VWS V14.01,2013-09-22 05:40:00,
2013-09-21 22:41:00,57.4,55.7,29.80,South,173,4.0,4.0,94,0.00,,---,0.05,0.00,VWS V14.01,2013-09-22 05:41:00,
2013-09-21 22:46:00,57.2,55.5,29.80,South,173,0.0,4.0,94,0.00,,---,0.05,0.00,VWS V14.01,2013-09-22 05:46:00,
2013-09-21 22:50:00,58.0,56.0,29.79,South,173,0.0,3.0,93,0.00,,---,0.05,0.00,VWS V14.01,2013-09-22 05:50:00,
2013-09-21 22:51:00,57.0,55.3,29.81,South,173,3.0,3.0,94,0.00,,---,0.05,0.00,VWS V14.01,2013-09-22 05:51:00,
2013-09-21 22:56:00,56.9,55.2,29.81,South,173,4.0,4.0,94,0.00,,---,0.05,0.00,VWS V14.01,2013-09-22 05:56:00,
2013-09-21 23:00:00,56.7,55.0,29.81,South,191,0.0,2.0,94,0.00,,---,0.05,0.00,VWS V14.01,2013-09-22 06:00:00,
2013-09-21 23:05:00,56.5,54.5,29.81,SSW,204,0.0,5.0,93,0.00,,---,0.05,0.00,VWS V14.01,2013-09-22 06:05:00,
2013-09-21 23:10:00,56.2,54.2,29.81,SSW,204,0.0,2.0,93,0.00,,---,0.05,0.00,VWS V14.01,2013-09-22 06:10:00,
2013-09-21 23:15:00,56.0,54.0,29.81,SSW,209,0.0,3.0,93,0.00,,---,0.05,0.00,VWS V14.01,2013-09-22 06:15:00,
2013-09-21 23:20:00,55.7,53.7,29.81,SSW,209,3.0,3.0,93,0.00,,---,0.05,0.00,VWS V14.01,2013-09-22 06:20:00,
2013-09-21 23:25:00,55.4,53.4,29.81,SSW,209,0.0,3.0,93,0.00,,---,0.05,0.00,VWS V14.01,2013-09-22 06:25:00,
2013-09-21 23:30:00,55.2,53.2,29.81,SSW,209,0.0,0.0,93,0.00,,---,0.05,0.00,VWS V14.01,2013-09-22 06:30:00,
2013-09-21 23:35:00,55.1,53.4,29.82,SSW,209,0.0,3.0,94,0.00,,---,0.05,0.00,VWS V14.01,2013-09-22 06:35:00,
2013-09-21 23:40:00,54.9,53.2,29.82,SSW,209,0.0,2.0,94,0.00,,---,0.05,0.00,VWS V14.01,2013-09-22 06:40:00,
2013-09-21 23:45:00,54.8,53.1,29.82,SSW,209,0.0,2.0,94,0.00,,---,0.05,0.00,VWS V14.01,2013-09-22 06:45:00,
2013-09-21 23:50:00,54.8,53.1,29.82,SSW,209,1.0,2.0,94,0.00,,---,0.05,0.00,VWS V14.01,2013-09-22 06:50:00,
2013-09-21 23:55:00,54.7,53.0,29.82,SSW,209,0.0,2.0,94,0.00,,---,0.05,0.00,VWS V14.01,2013-09-22 06:55:00,